Wind_Speed
16 16 16 16 16 16 15 15 15 14 14 16 17 21 20 18 18 17 11 11 18 22 24 22 20 16 13 9 6 11 10 9 4 7 13 9 7 8 9 14 11 6 9 22 31
17 18 18 18 18 17 17 16 16 16 15 13 15 17 20 20 19 16 9 18 19 22 27 27 24 20 18 14 13 15 12 7 6 7 4 12 7 8 10 12 10 14 12 21 29
18 19 19 20 20 19 18 18 17 17 17 15 14 15 17 20 19 15 18 18 15 20 24 24 22 22 20 14 17 13 11 3 5 5 7 12 8 10 9 11 11 15 8 17 22
18 18 19 20 19 20 20 19 18 19 18 17 15 16 15 17 5 20 16 19 16 19 26 26 25 26 22 21 17 16 13 3 8 6 5 8 15 9 6 10 12 13 6 12 22
21 21 21 22 21 20 20 19 19 20 19 18 16 19 18 18 19 19 11 18 21 22 27 30 30 29 27 20 16 19 10 13 8 6 7 5 5 10 8 9 12 11 9 16 22
24 24 24 24 24 22 21 20 20 20 21 20 18 21 20 19 17 26 22 16 16 21 25 30 30 28 24 20 24 15 17 14 13 11 9 9 9 9 10 13 16 3 10 17 24
26 27 27 26 26 25 24 22 21 20 21 21 21 23 23 12 17 22 22 19 16 14 23 28 25 29 22 25 20 21 18 22 20 16 12 12 12 13 11 17 18 12 5 17 22
28 28 29 29 28 27 26 25 23 21 21 21 22 25 28 17 21 19 21 24 21 16 22 23 26 26 27 16 19 24 23 23 22 19 16 13 17 17 17 19 21 21 14 10 21
30 30 30 31 31 29 28 27 26 24 22 21 22 24 27 25 24 20 21 25 22 21 22 22 26 26 31 24 24 26 27 28 24 25 19 19 12 11 17 20 21 22 22 18 13
32 33 34 33 32 30 30 29 27 27 24 23 23 20 24 15 25 26 25 26 26 24 24 27 28 29 34 35 34 30 32 28 27 23 24 22 20 10 14 19 22 23 23 24 19
34 35 36 35 34 33 28 27 26 29 24 22 17 22 17 18 27 25 28 28 28 28 31 33 35 46 42 40 32 26 28 26 29 19 22 25 22 19 14 17 22 24 25 25 24
34 35 38 39 38 32 28 25 24 27 35 28 27 31 28 23 19 26 30 31 37 38 32 31 45 36 32 34 34 33 30 31 28 23 20 20 22 19 17 18 22 24 25 25 24
34 34 35 38 38 35 33 27 23 26 34 36 29 32 28 33 29 26 35 36 38 39 41 40 24 33 34 36 38 38 36 29 29 25 23 22 22 22 18 18 22 24 22 24 27
32 33 33 32 37 33 29 28 23 20 17 21 23 24 35 33 38 29 34 40 35 43 39 36 29 27 37 38 38 40 37 31 26 29 30 28 26 29 24 22 23 26 25 26 27
32 32 33 33 31 29 27 22 18 10 7 6 10 16 16 41 10 40 37 43 33 32 40 43 33 31 38 39 36 38 30 34 31 29 29 30 29 27 31 32 28 25 25 26 27
34 33 33 35 30 25 24 18 10 6 11 4 3 4 12 29 26 14 39 42 38 32 33 36 28 33 28 32 30 29 27 28 31 33 30 37 34 32 28 27 29 27 27 25 27
34 33 32 31 27 22 20 12 11 15 5 9 7 4 12 18 29 25 39 46 51 46 45 37 41 31 30 29 32 30 30 21 22 25 21 38 40 38 29 29 27 28 28 27 25
31 31 31 31 25 20 16 10 15 19 12 18 20 21 19 17 23 36 35 43 49 45 34 39 37 46 32 40 35 38 39 27 23 19 19 36 43 45 34 19 28 28 30 27 24
30 30 18 25 21 17 11 14 16 12 20 24 25 18 15 17 18 33 37 42 43 50 48 41 45 26 47 35 39 37 45 41 32 31 23 35 39 33 29 36 28 23 31 27 26
30 20 9 28 20 10 10 16 18 19 22 21 21 17 23 15 13 20 37 33 37 44 43 39 29 41 27 34 39 40 34 38 35 23 19 24 23 34 32 27 37 35 28 31 29
27 13 20 24 13 9 11 14 18 16 16 19 23 28 23 21 19 19 22 17 20 30 44 46 35 22 38 50 44 45 37 42 34 32 15 12 17 24 28 26 30 35 36 31 29
27 12 21 21 8 11 13 14 15 15 16 18 21 22 26 21 23 16 17 3 8 23 21 50 30 35 44 39 35 38 41 40 33 33 33 22 5 1 24 22 21 29 27 31 28
25 14 15 16 11 12 14 15 10 13 15 13 14 16 17 17 13 11 7 6 7 6 11 23 35 31 31 36 39 45 43 38 39 31 32 23 11 6 9 10 22 24 24 26 27
21 11 15 8 14 16 20 15 14 14 10 9 15 14 17 18 16 16 11 4 7 6 16 23 29 38 28 40 40 41 44 43 38 40 29 33 22 11 7 15 17 20 21 22 26
15 11 14 13 14 16 15 18 17 16 9 12 13 11 12 11 19 11 8 9 4 8 4 12 23 32 36 22 25 41 44 44 45 38 40 24 26 17 14 14 15 17 16 15 14
29 21 17 16 13 13 14 14 14 14 15 15 14 11 13 13 15 22 5 8 2 1 4 8 19 26 30 33 16 18 30 43 44 41 35 33 22 24 14 16 14 13 11 12 13
33 23 21 19 13 13 12 14 18 17 12 10 13 17 13 14 14 16 17 12 14 10 6 5 12 20 25 30 18 26 30 29 40 39 37 37 31 22 18 17 17 16 14 12 12
Wind_Direction
311 308 304 299 294 292 291 289 287 285 281 276 264 261 258 253 251 249 241 228 227 216 215 213 215 224 221 234 228 257 238 260 185 93 130 120 114 129 130 131 125 105 161 153 150
314 311 309 306 303 297 291 287 285 284 281 276 273 263 259 256 254 248 215 223 222 211 208 212 212 214 209 221 233 224 239 248 127 131 111 129 109 130 135 136 130 127 154 162 157
320 315 309 305 304 303 298 289 284 279 278 273 270 267 259 258 260 266 228 231 223 213 204 209 203 206 208 214 221 239 251 170 159 131 162 143 120 110 145 146 147 154 161 175 164
333 325 317 311 305 300 299 297 288 276 269 269 266 263 258 253 225 250 226 224 222 207 203 202 198 204 208 215 219 238 232 217 174 149 157 153 150 143 121 155 170 167 148 176 176
335 330 326 319 313 308 300 294 290 283 273 266 259 259 256 250 234 243 227 215 216 213 206 201 200 203 209 211 218 227 232 215 204 197 178 183 152 148 157 151 157 169 177 174 178
328 324 322 319 316 312 305 299 292 284 279 267 257 254 254 252 243 240 233 215 214 216 207 203 205 203 210 212 223 228 221 217 214 208 210 192 192 174 180 168 171 160 176 179 180
323 319 316 314 312 309 306 301 294 286 278 273 259 254 252 235 242 234 233 220 218 212 204 205 204 204 201 219 221 219 223 225 222 217 205 210 211 208 189 176 180 180 170 182 182
323 319 314 310 307 306 302 299 295 286 278 272 264 255 253 241 242 235 226 216 213 203 198 204 203 211 211 218 224 222 223 226 217 214 212 215 213 204 198 192 187 184 189 188 194
327 322 316 311 307 302 298 296 292 287 279 269 262 259 261 243 235 233 224 214 205 198 195 201 202 211 210 214 224 217 219 219 222 219 213 210 221 190 191 201 198 192 191 194 199
334 329 323 315 310 304 299 293 289 282 275 269 259 254 255 255 228 225 217 205 196 193 196 198 201 213 209 211 218 212 213 215 217 201 211 207 216 194 198 202 204 199 198 195 203
347 342 338 331 323 313 300 301 294 289 263 254 242 230 245 237 235 219 213 199 191 197 197 197 201 210 208 212 216 219 215 224 210 206 204 214 212 219 212 211 202 202 200 200 202
347 346 343 339 339 329 317 314 300 282 273 261 251 247 227 229 229 215 202 193 192 199 196 201 217 214 212 214 217 221 227 221 221 214 213 216 228 224 221 209 203 203 201 202 198
348 346 346 339 338 340 330 322 311 293 287 265 255 249 233 231 222 215 211 199 200 198 201 206 224 211 212 211 215 219 221 222 224 218 221 224 234 226 221 211 207 208 206 203 201
341 341 342 341 338 336 336 327 320 305 296 277 266 245 225 222 232 201 217 199 202 208 207 214 214 212 208 215 213 221 218 222 223 227 223 222 234 219 223 214 209 207 209 208 205
344 345 344 345 338 328 334 338 320 313 280 141 187 223 206 208 233 212 209 197 206 204 204 215 209 211 212 213 212 222 220 223 227 236 240 237 228 238 212 215 210 209 211 211 211
345 346 347 348 348 331 329 337 338 244 240 203 248 265 202 210 205 219 200 200 205 214 218 218 218 213 217 212 213 215 219 223 224 229 236 230 231 233 229 219 208 213 213 213 208
345 344 346 348 344 333 327 338 280 240 160 359 327 308 243 228 217 203 198 198 202 208 216 216 217 220 214 212 211 207 206 209 222 218 231 228 232 232 228 223 221 217 214 211 210
341 343 342 359 347 340 333 326 263 259 332 313 312 298 269 235 227 204 205 208 208 210 211 211 216 214 211 211 204 206 206 213 213 217 226 228 229 231 229 230 224 221 214 211 212
340 348 356 350 346 342 332 292 299 318 320 321 316 309 264 229 228 209 212 215 215 206 214 210 223 221 213 209 205 205 215 214 230 222 238 220 228 237 228 225 219 212 208 208 210
345 355 306 345 341 343 318 288 298 314 308 312 299 291 313 331 234 229 216 223 221 218 214 227 224 220 210 210 216 214 216 213 230 245 230 232 229 216 217 220 217 216 209 208 210
350 349 282 340 349 346 299 300 305 303 309 297 289 279 288 306 297 252 228 217 213 213 221 221 231 237 210 206 206 206 215 214 222 228 242 234 230 231 215 217 218 212 212 207 207
360 338 303 2 356 312 307 304 305 305 308 297 276 275 272 291 297 277 288 184 236 208 227 212 232 231 212 212 210 212 209 208 220 221 233 251 212 190 210 217 209 207 206 204 206
353 335 335 1 349 322 314 309 290 296 306 307 305 296 294 283 291 314 298 296 281 195 215 194 213 220 233 203 211 213 210 214 215 225 216 227 216 142 169 193 199 194 197 196 200
354 340 322 352 325 315 309 296 301 299 306 312 297 305 314 268 263 272 303 309 298 262 220 200 211 217 215 201 201 209 212 212 214 218 221 213 217 157 127 158 174 182 189 190 200
343 312 316 319 308 310 309 297 294 305 300 304 304 324 320 305 274 288 287 301 272 285 205 211 222 220 231 222 209 213 213 213 214 216 219 211 209 178 167 145 139 152 162 174 191
333 316 308 320 306 303 312 299 303 303 305 297 292 312 306 301 286 294 326 343 319 19 305 229 236 225 237 230 229 237 223 217 216 217 220 223 214 206 176 178 181 189 206 206 196
331 326 298 303 316 297 300 304 303 299 298 293 295 302 299 304 293 273 259 277 269 290 290 273 223 225 232 224 232 239 218 219 218 216 218 219 218 208 202 209 224 224 225 208 214
Height
3149 3147 3145 3143 3141 3139 3137 3135 3134 3133 3132 3130 3130 3130 3131 3132 3132 3133 3135 3137 3137 3140 3144 3149 3152 3154 3156 3157 3158 3161 3160 3156 3157 3157 3157 3161 3163 3164 3165 3164 3167 3167 3165 3166 3167
3147 3145 3143 3141 3138 3136 3135 3133 3131 3129 3129 3128 3127 3127 3127 3128 3128 3129 3134 3132 3133 3136 3140 3144 3149 3152 3156 3157 3161 3159 3158 3156 3158 3158 3159 3161 3162 3165 3166 3167 3168 3170 3167 3169 3169
3143 3141 3139 3138 3136 3133 3131 3130 3128 3127 3125 3125 3125 3124 3124 3123 3125 3125 3126 3129 3131 3134 3138 3143 3148 3152 3156 3159 3159 3159 3160 3147 3159 3159 3160 3160 3163 3166 3167 3170 3170 3169 3168 3170 3171
3141 3138 3135 3133 3132 3130 3128 3126 3124 3122 3122 3121 3121 3120 3120 3121 3127 3118 3122 3125 3128 3131 3134 3139 3146 3150 3154 3157 3159 3158 3159 3155 3159 3161 3160 3159 3156 3166 3168 3169 3171 3170 3169 3171 3174
3137 3134 3132 3129 3127 3125 3124 3122 3120 3118 3118 3118 3118 3116 3116 3117 3118 3116 3119 3121 3124 3126 3130 3135 3141 3147 3151 3156 3158 3158 3157 3159 3160 3162 3163 3162 3162 3157 3168 3171 3171 3170 3171 3172 3176
3134 3131 3128 3125 3122 3120 3119 3117 3115 3114 3113 3113 3114 3112 3112 3113 3113 3112 3115 3118 3120 3123 3127 3133 3138 3146 3151 3154 3155 3156 3157 3158 3160 3162 3163 3164 3165 3166 3167 3170 3170 3169 3170 3172 3175
3129 3126 3123 3120 3118 3115 3113 3111 3110 3109 3108 3108 3108 3107 3106 3111 3109 3109 3111 3116 3118 3120 3124 3131 3138 3143 3148 3150 3153 3154 3155 3157 3157 3159 3161 3162 3164 3164 3165 3168 3168 3168 3170 3172 3174
3124 3120 3116 3113 3111 3109 3107 3105 3104 3103 3102 3101 3101 3101 3099 3104 3104 3105 3108 3111 3115 3117 3124 3131 3136 3141 3145 3148 3149 3151 3153 3152 3153 3156 3158 3161 3157 3159 3163 3165 3167 3168 3169 3171 3173
3119 3115 3110 3106 3103 3102 3099 3098 3097 3096 3096 3095 3095 3095 3095 3097 3099 3101 3104 3107 3112 3116 3122 3129 3133 3136 3142 3143 3145 3144 3143 3147 3149 3151 3155 3157 3155 3158 3159 3162 3165 3167 3168 3170 3172
3116 3110 3105 3100 3096 3093 3091 3089 3089 3087 3088 3088 3088 3092 3090 3091 3091 3094 3099 3103 3109 3115 3119 3124 3128 3130 3132 3134 3131 3135 3139 3139 3142 3146 3150 3152 3153 3155 3155 3159 3162 3165 3167 3168 3169
3112 3106 3100 3095 3091 3086 3085 3083 3082 3076 3079 3080 3079 3079 3082 3084 3085 3088 3092 3098 3105 3111 3111 3115 3119 3111 3119 3127 3133 3134 3135 3135 3136 3141 3145 3147 3148 3151 3152 3156 3159 3161 3163 3165 3167
3109 3104 3097 3091 3086 3082 3078 3077 3075 3071 3063 3067 3070 3068 3073 3075 3079 3082 3087 3092 3096 3098 3108 3112 3102 3113 3121 3125 3129 3130 3129 3131 3134 3137 3142 3142 3144 3145 3147 3151 3155 3157 3160 3162 3166
3105 3100 3095 3087 3084 3080 3074 3073 3070 3065 3056 3054 3059 3060 3066 3069 3070 3075 3077 3083 3088 3094 3094 3096 3099 3109 3114 3117 3121 3124 3125 3127 3130 3134 3137 3141 3140 3141 3144 3146 3151 3154 3157 3159 3160
3101 3095 3091 3087 3081 3077 3075 3070 3067 3062 3056 3047 3047 3047 3052 3058 3058 3067 3069 3078 3084 3085 3091 3095 3100 3101 3106 3109 3114 3115 3122 3127 3129 3129 3128 3134 3133 3135 3138 3141 3146 3149 3152 3155 3157
3096 3091 3086 3080 3078 3075 3072 3068 3065 3064 3059 3044 3041 3038 3044 3044 3056 3054 3063 3071 3076 3079 3088 3082 3090 3095 3097 3099 3108 3110 3119 3123 3127 3127 3128 3124 3126 3123 3127 3132 3137 3143 3146 3150 3153
3091 3086 3081 3076 3072 3071 3068 3065 3065 3067 3048 3042 3041 3041 3042 3043 3046 3054 3056 3065 3075 3079 3079 3082 3087 3090 3091 3098 3103 3110 3115 3118 3121 3124 3117 3119 3121 3117 3118 3123 3129 3135 3141 3145 3148
3088 3083 3077 3073 3071 3068 3065 3063 3066 3056 3042 3043 3039 3040 3041 3040 3041 3047 3048 3050 3053 3064 3065 3074 3075 3081 3086 3092 3097 3103 3108 3109 3109 3104 3099 3112 3114 3111 3115 3120 3124 3129 3134 3139 3143
3084 3079 3074 3067 3066 3065 3063 3066 3062 3046 3048 3045 3041 3037 3036 3035 3035 3038 3042 3044 3049 3055 3061 3063 3067 3069 3074 3078 3086 3091 3095 3091 3090 3091 3097 3105 3093 3100 3111 3114 3117 3122 3128 3133 3137
3080 3073 3070 3068 3064 3062 3063 3062 3054 3050 3048 3046 3039 3033 3029 3030 3032 3033 3034 3037 3041 3046 3049 3052 3054 3059 3066 3074 3080 3083 3082 3089 3088 3085 3084 3085 3092 3099 3102 3107 3113 3116 3122 3126 3130
3075 3072 3069 3064 3061 3059 3063 3058 3054 3053 3050 3049 3048 3039 3030 3028 3030 3029 3030 3033 3036 3040 3047 3044 3050 3053 3059 3069 3071 3071 3082 3087 3083 3077 3073 3075 3078 3084 3092 3098 3104 3110 3115 3120 3126
3074 3074 3067 3063 3059 3061 3058 3055 3054 3053 3051 3049 3044 3038 3037 3033 3029 3025 3024 3026 3025 3030 3038 3042 3042 3044 3051 3048 3055 3065 3069 3075 3081 3077 3072 3074 3074 3079 3083 3091 3097 3102 3109 3115 3120
3072 3074 3065 3059 3062 3060 3056 3053 3053 3050 3048 3045 3041 3039 3035 3034 3027 3021 3022 3017 3017 3023 3025 3031 3037 3038 3034 3046 3055 3059 3062 3067 3068 3071 3073 3070 3071 3073 3076 3085 3090 3097 3103 3109 3115
3071 3069 3065 3060 3061 3058 3055 3051 3049 3046 3044 3042 3039 3033 3028 3029 3028 3019 3018 3017 3017 3022 3023 3028 3029 3032 3032 3040 3045 3046 3053 3059 3066 3069 3068 3072 3073 3076 3078 3082 3088 3094 3100 3106 3112
3070 3069 3066 3061 3060 3056 3053 3050 3046 3043 3041 3040 3036 3034 3027 3026 3027 3021 3018 3018 3019 3019 3016 3018 3023 3022 3016 3018 3035 3042 3044 3052 3056 3061 3062 3066 3072 3077 3080 3082 3085 3091 3097 3102 3105
3071 3067 3061 3058 3055 3051 3050 3048 3044 3040 3039 3037 3033 3031 3031 3027 3022 3017 3016 3019 3020 3019 3021 3025 3023 3023 3020 3024 3029 3032 3038 3043 3046 3055 3057 3063 3070 3074 3078 3083 3086 3090 3095 3099 3102
3064 3060 3056 3052 3052 3047 3046 3044 3041 3039 3038 3035 3032 3030 3028 3027 3024 3019 3016 3018 3018 3019 3020 3022 3023 3024 3020 3021 3026 3028 3029 3036 3043 3050 3057 3062 3065 3072 3076 3082 3086 3090 3094 3096 3099
3058 3056 3052 3048 3046 3045 3043 3041 3038 3036 3034 3032 3029 3028 3026 3024 3022 3019 3018 3019 3019 3022 3022 3022 3023 3022 3018 3022 3027 3027 3026 3031 3039 3045 3052 3056 3064 3069 3073 3078 3082 3086 3089 3093 3097